Retour au catalogue

CZ-4 DEB

ActifSSO
NORAD 26234·DEBRIS·🇨🇳 China

Lancé Oct 14, 1999 depuis Taiyuan Satellite Launch Center

Loading…

Prochains Passages (prochaines 24 heures)

TLE

FraisSource: Space-Track

Époque: Sep 14, 2026, 13:53 UTC

1 26234U 99057DY  26257.57901916  .00000403  00000-0  10323-3 0  9996
2 26234  98.6182  20.0796 0010842 359.1471  62.3264 14.55761187403322

Suivez CZ-4 DEB en temps réel avec AllMySat

Download on the App Store